Shelbyville, IN

4:32 AM EST on February 10, 2016 (GMT -0500)
Shelbyville Municipal

Weather History for KGEZ - December, 2013

Change the Weather History Date:

Wednesday, December 18, 2013

  Actual Average Record
Temperature  
Mean Temperature 26 °F 31 °F  
Max Temperature 36 °F 38 °F 59 °F (2006)
Min Temperature 15 °F 23 °F 6 °F (2000)
Degree Days  
Heating Degree Days 39 34  
Month to date heating degree days 640 569  
Since 1 July heating degree days 1706 1644  
Cooling Degree Days 0 0  
Month to date cooling degree days 0 0  
Year to date cooling degree days 1179 913  
Moisture  
Dew Point 16 °F    
Average Humidity 68    
Maximum Humidity 88    
Minimum Humidity 47    
Precipitation  
Precipitation 0.00 in 0.09 in 0.63 in (2002)
Month to date precipitation 1.30 1.81  
Year to date precipitation 30.54 42.10  
Sea Level Pressure  
Sea Level Pressure 30.18 in    
Wind  
Wind Speed 10 mph (SSW)    
Max Wind Speed 17 mph    
Max Gust Speed 22 mph    
Visibility 10 miles    
Events      
T = Trace of Precipitation, MM = Missing Value Source: NWS Daily Summary

Daily Weather History Graph

Daily Weather History Graph

Search for Another Location

Airport or City:

Trip Planner

Search our weather history database for the weather conditions in past years. The results will help you decide how hot, cold, wet, or windy it might be!

Date:

Astronomy

Dec. 18, 2013 Rise Set
Actual Time 7:58 AM EST 5:21 PM EST
Civil Twilight 7:28 AM EST 5:51 PM EST
Nautical Twilight 6:54 AM EST 6:25 PM EST
Astronomical Twilight 6:21 AM EST 6:58 PM EST
Moon 6:52 PM EST (12/18) 8:38 AM EST (12/18)
Length of Visible Light 10h 23m
Length of Day
9h 22m
Full, 98% of the Moon is Illuminated
Dec 18
Full
Dec 25
Last Quarter
Jan 1
New
Jan 7
First Quarter
Jan 15
Full

Hourly Weather History & Observations

Time (EST) Temp. Windchill Dew Point Humidity Pressure Visibility Wind Dir Wind Speed Gust Speed Precip Events Conditions
12:53 AM 21.0 °F 12.4 °F 18.0 °F 88% 30.19 in 6.0 mi SW 6.9 mph - N/A   Clear
1:53 AM 23.0 °F 13.1 °F 18.0 °F 81% 30.18 in 10.0 mi WSW 9.2 mph - N/A   Clear
2:53 AM 21.9 °F 13.4 °F 15.1 °F 75% 30.20 in 10.0 mi West 6.9 mph - N/A   Clear
3:53 AM 21.0 °F 12.4 °F 14.0 °F 74% 30.20 in 10.0 mi WSW 6.9 mph - N/A   Clear
4:53 AM 19.9 °F 11.1 °F 12.9 °F 74% 30.21 in 10.0 mi West 6.9 mph - N/A   Clear
5:53 AM 18.0 °F 8.7 °F 10.9 °F 74% 30.22 in 10.0 mi WSW 6.9 mph - N/A   Clear
6:53 AM 19.0 °F 9.0 °F 12.0 °F 74% 30.24 in 10.0 mi WSW 8.1 mph - N/A   Clear
7:53 AM 15.1 °F 5.2 °F 9.0 °F 77% 30.26 in 10.0 mi WSW 6.9 mph - N/A   Clear
8:53 AM 17.1 °F 8.7 °F 10.0 °F 74% 30.28 in 10.0 mi SW 5.8 mph - N/A   Clear
9:53 AM 19.9 °F 9.3 °F 12.0 °F 71% 30.29 in 10.0 mi SW 9.2 mph - N/A   Clear
10:53 AM 24.1 °F 14.4 °F 14.0 °F 65% 30.29 in 10.0 mi SW 9.2 mph - N/A   Clear
11:53 AM 27.0 °F 18.0 °F 16.0 °F 63% 30.28 in 10.0 mi SSW 9.2 mph - N/A   Clear
12:53 PM 28.9 °F 21.1 °F 15.1 °F 56% 30.26 in 10.0 mi SW 8.1 mph - N/A   Clear
1:53 PM 30.9 °F 25.2 °F 18.0 °F 59% 30.24 in 10.0 mi South 5.8 mph - N/A   Clear
2:53 PM 32.0 °F 24.8 °F 19.0 °F 59% 30.21 in 10.0 mi SSE 8.1 mph - N/A   Clear
3:53 PM 33.1 °F 24.4 °F 19.9 °F 59% 30.18 in 10.0 mi South 11.5 mph - N/A   Clear
4:53 PM 34.0 °F 24.6 °F 17.1 °F 50% 30.15 in 10.0 mi South 13.8 mph - N/A   Clear
5:53 PM 33.1 °F 22.6 °F 18.0 °F 54% 30.11 in 10.0 mi South 16.1 mph - N/A   Clear
6:53 PM 34.0 °F 25.5 °F 18.0 °F 52% 30.09 in 10.0 mi South 11.5 mph - N/A   Clear
7:53 PM 35.1 °F 25.9 °F 18.0 °F 50% 30.07 in 10.0 mi South 13.8 mph - N/A   Clear
8:53 PM 35.1 °F 25.5 °F 19.0 °F 52% 30.06 in 10.0 mi South 15.0 mph - N/A   Clear
9:53 PM 35.1 °F 25.9 °F 19.0 °F 52% 30.05 in 10.0 mi South 13.8 mph - N/A   Clear
10:53 PM 34.0 °F 24.2 °F 19.0 °F 54% 30.04 in 10.0 mi South 15.0 mph - N/A   Clear
11:53 PM 33.1 °F 24.4 °F 19.0 °F 56% 30.05 in 10.0 mi South 11.5 mph - N/A   Clear